Location: Biltmore Gardens
(41.6070°N, 83.4666°W)
Time: 22:23:09
(UTC+00:00)

N. Korean satellite - Pass Details

Date: 08 March 2021
Orbit: 453 x 499 km, 97.2° (Epoch: 12 April)

Event Time Altitude Azimuth Distance (km) Brightness Sun altitude
Rises 11:01:24 0° 11° (N) 2,542 10.4 -11.2°
Reaches altitude 10° 11:03:27 10° 11° (N) 1,666 9.5 -10.8°
Maximum altitude 11:07:03 86° 284° (WNW) 493 6.5 -10.1°
Drops below altitude 10° 11:10:40 10° 194° (SSW) 1,677 9.1 -9.5°
Sets 11:12:44 0° 194° (SSW) 2,560 10.1 -9.1°
